Regional Weather Roundup
Issued by NWS

Home | Current Version | Previous Version | Graphics & Text | Print | Product List | Glossary On
Versions: 1 2 3 4 5 6 7 8 9 10 11 12 13 14 15 16 17 18 19 20 21 22 23 24 25 26 27
000
ASUS45 KCYS 171110
RWRWY

WYOMING REGIONAL WEATHER ROUNDUP
NATIONAL WEATHER SERVICE CHEYENNE WY
500 AM MDT THU APR 17 2014

NOTE:  "FAIR" INDICATES FEW OR NO CLOUDS BELOW 12,000 FEET
WITH NO SIGNIFICANT WEATHER AND/OR OBSTRUCTIONS TO VISIBILITY.

WYZ001-171200-
YELLOWSTONE NATIONAL PARK

CITY           SKY/WX    TMP DP  RH WIND       PRES   REMARKS
LK YELLOWSTONE   N/A     20  14  77 CALM      30.03F
W YELLOWSTONE  NOT AVBL

$$
WYZ002>013-054>058-071-098>099-171200-
NORTHERN WYOMING

CITY           SKY/WX    TMP DP  RH WIND       PRES   REMARKS
JACKSON        CLEAR     19  16  86 N7        30.04S WCI  10
CODY           CLEAR     27  23  86 S3        29.99S
GREYBULL       CLOUDY    32  30  92 CALM      30.01S
WORLAND        CLEAR     33  28  81 SE8       30.01S WCI  26
SHERIDAN       FOG       33  31  92 W5        30.02S VSB 1   WCI  29
BUFFALO        CLOUDY    28  23  81 CALM      30.00F
GILLETTE       PTCLDY    32  29  88 S12       30.03S WCI  23
HULETT         FAIR      32  30  93 SW7       30.06  WCI  26
NEWCASTLE      CLOUDY    30  30 100 SE8       30.11  WCI  23

$$
WYZ014>020-022>026-101>103-171200-
CENTRAL WYOMING

CITY           SKY/WX    TMP DP  RH WIND       PRES   REMARKS
BIG PINEY      CLEAR     19  13  77 E6        30.07R WCI  11
PINEDALE       MOSUNNY   21  18  86 W3        30.08R
DUBOIS         FAIR      23  14  68 NW8       30.02S WCI  14
LANDER         CLEAR     28  25  88 NW6       30.04R WCI  22
RIVERTON       PTCLDY    24  22  91 NW9       30.04R WCI  14
CASPER         CLOUDY    31  29  92 CALM      30.04S FOG
DOUGLAS        CLOUDY    32  30  92 SE13      30.06R WCI  22

$$
WYZ021-027>030-104>119-171200-
SOUTHERN WYOMING

CITY           SKY/WX    TMP DP  RH WIND       PRES   REMARKS
EVANSTON       CLEAR     28  11  48 S8        30.07S WCI  20
FORT BRIDGER   FAIR      34  10  36 SW9       30.09S WCI  26
ROCK SPRINGS   PTCLDY    30  10  43 CALM      30.06R
DIXON          PTSUNNY   25  20  82 CALM      30.10R
RAWLINS        CLEAR     21  18  88 NW5       30.06R WCI  15
SARATOGA       FAIR      21  16  79 CALM      30.05S
LARAMIE        CLEAR     26  23  88 S10       30.02R WCI  16
CHEYENNE       CLOUDY    30  29  96 S13       30.05S FOG     WCI  20
TORRINGTON     MOCLDY    31  29  92 SE12      30.10S WCI  22
PINE BLUFFS    FOG       30  28  93 SE13      30.08S VSB 1   WCI  20

$$



USA.gov is the U.S. government's official web portal to all federal, state and local government web resources and services.